KD8BMB Weather Reports


time (UTC)temp
F
wind
direction
speed
knots
gust
knots
rain 1hr
in
rain 24hr
in
rain mn
in
humidity
%
barometer
mb
20260510073010 42 305 0.0 0.0 0.00 0.00 0.00 68 1012.5
20260510072506 42 299 0.0 0.0 0.00 0.00 0.00 67 1012.3
20260510072002 42 314 0.9 0.9 0.00 0.00 0.00 67 1012.4
20260510071458 42 283 0.0 0.0 0.00 0.00 0.00 67 1012.3
20260510070957 42 45 0.0 0.0 0.00 0.00 0.00 67 1012.3
20260510070453 43 330 0.0 0.0 0.00 0.00 0.00 67 1012.0
20260510065949 43 307 0.0 0.0 0.00 0.00 0.00 67 1012.3
20260510065447 43 282 0.9 0.9 0.00 0.00 0.00 66 1012.1
20260510064942 43 312 0.0 0.0 0.00 0.00 0.00 65 1012.2
20260510064440 43 29 0.9 1.7 0.00 0.00 0.00 65 1011.9
20260510063936 44 344 0.0 0.0 0.00 0.00 0.00 64 1012.0
20260510063432 44 5 1.7 2.6 0.00 0.00 0.00 65 1011.9
20260510062930 44 330 0.0 0.9 0.00 0.00 0.00 64 1011.5
20260510062425 44 43 0.9 1.7 0.00 0.00 0.00 64 1011.6
20260510061921 44 23 1.7 1.7 0.00 0.00 0.00 64 1011.6
20260510061418 44 301 0.0 0.0 0.00 0.00 0.00 65 1011.6
20260510060914 44 308 1.7 1.7 0.00 0.00 0.00 65 1011.8
20260510060410 44 313 0.9 0.9 0.00 0.00 0.00 66 1011.5
20260510055907 45 315 0.0 0.0 0.00 0.00 0.00 65 1011.1
20260510055403 45 5 0.9 0.9 0.00 0.00 0.00 64 1011.2
20260510054901 45 302 0.9 1.7 0.00 0.00 0.00 64 1011.3
20260510054356 46 32 0.9 0.9 0.00 0.00 0.00 64 1011.0
20260510053851 46 321 0.9 0.9 0.00 0.00 0.00 65 1011.2
20260510053347 46 319 0.0 0.0 0.00 0.00 0.00 65 1011.0
20260510052844 46 314 0.0 0.0 0.00 0.00 0.00 64 1010.7
20260510052339 47 314 0.0 0.0 0.00 0.00 0.00 64 1010.7
20260510051836 47 23 0.9 1.7 0.00 0.00 0.00 64 1010.9
20260510051332 47 49 0.9 1.7 0.00 0.00 0.00 64 1010.6
20260510050830 48 336 1.7 1.7 0.00 0.00 0.00 64 1010.7
20260510050326 48 49 0.9 1.7 0.00 0.00 0.00 64 1010.5
20260510045823 48 338 0.9 0.9 0.00 0.00 0.00 64 1010.2
20260510045320 48 357 0.0 0.9 0.00 0.00 0.00 64 1010.2
20260510044817 48 9 0.0 0.9 0.00 0.00 0.00 65 1010.2
20260510044314 48 13 2.6 2.6 0.00 0.00 0.00 67 1010.3
20260510043810 47 296 0.9 0.9 0.00 0.00 0.00 71 1010.2
20260510043306 47 311 0.0 0.0 0.00 0.00 0.00 72 1009.8
20260510042804 47 322 0.0 0.0 0.00 0.00 0.00 71 1009.7
20260510042259 47 311 0.0 0.0 0.00 0.00 0.00 72 1009.6
20260510041756 47 305 0.0 0.0 0.00 0.00 0.00 73 1009.6
20260510041253 46 311 0.0 0.0 0.00 0.00 0.00 75 1009.4
20260510040750 46 323 0.0 0.0 0.00 0.00 0.00 77 1009.4
20260510040242 47 303 0.0 0.0 0.00 0.00 0.00 76 1009.3
20260510035737 47 338 0.0 0.0 0.00 0.07 0.07 75 1009.3
20260510035233 47 338 0.0 0.0 0.00 0.07 0.07 73 1009.1
20260510034729 48 343 0.0 0.0 0.00 0.07 0.07 73 1009.0
20260510034228 48 343 0.0 0.0 0.00 0.07 0.07 70 1008.8
20260510033723 49 343 0.0 0.0 0.00 0.07 0.07 69 1008.8
20260510033221 50 348 0.0 0.0 0.00 0.07 0.07 68 1008.8
20260510032717 50 356 0.0 0.0 0.00 0.07 0.07 68 1008.6
20260510032213 50 342 0.0 0.0 0.00 0.07 0.07 69 1008.5
20260510031708 50 294 0.0 0.0 0.00 0.07 0.07 68 1008.4
20260510031205 51 345 0.0 0.0 0.00 0.07 0.07 67 1008.7
20260510030704 51 332 0.0 0.0 0.00 0.07 0.07 66 1008.2
20260510030202 51 336 0.0 0.0 0.00 0.07 0.07 65 1007.9
20260510025659 52 27 0.0 0.0 0.00 0.07 0.07 65 1008.1
20260510025156 53 31 0.0 0.0 0.00 0.07 0.07 62 1008.0
20260510024653 53 350 0.0 0.0 0.00 0.07 0.07 61 1008.0
20260510024150 54 342 0.0 0.0 0.00 0.07 0.07 60 1007.7
20260510023645 54 341 0.0 0.0 0.00 0.07 0.07 60 1007.8
20260510023143 55 347 0.0 0.9 0.00 0.07 0.07 58 1007.6
20260510022637 55 349 0.9 0.9 0.00 0.07 0.07 57 1007.8
20260510022132 56 26 0.9 1.7 0.00 0.07 0.07 56 1007.6
20260510021628 57 292 0.9 1.7 0.00 0.07 0.07 52 1007.4
20260510021126 57 71 0.9 1.7 0.00 0.07 0.07 52 1007.1
20260510020620 57 320 2.6 4.3 0.00 0.07 0.07 52 1007.1
20260510020115 57 291 1.7 1.7 0.00 0.07 0.07 51 1007.1
20260510015612 58 280 0.9 0.9 0.00 0.07 0.07 51 1006.6
20260510015109 58 341 4.3 5.2 0.00 0.07 0.07 50 1006.7
20260510014604 58 270 1.7 1.7 0.00 0.07 0.07 51 1006.4
20260510014102 58 319 1.7 2.6 0.00 0.07 0.07 51 1006.5
20260510013556 58 313 1.7 2.6 0.00 0.07 0.07 51 1006.2
20260510013052 58 328 4.3 6.1 0.00 0.07 0.07 51 1005.9
20260510012551 58 294 0.9 0.9 0.00 0.07 0.07 51 1006.0
20260510012048 58 294 0.9 0.9 0.00 0.07 0.07 51 1005.7
20260510011548 58 273 0.9 0.9 0.00 0.07 0.07 50 1005.7
20260510011044 59 327 4.3 7.0 0.00 0.07 0.07 50 1005.3
20260510010541 59 256 0.9 0.9 0.00 0.07 0.07 50 1005.5
20260510010038 59 303 2.6 4.3 0.00 0.07 0.07 49 1005.3
20260510005533 59 311 0.9 0.9 0.00 0.07 0.07 49 1005.2
20260510005031 59 267 1.7 4.3 0.00 0.07 0.07 48 1005.2
20260510004529 59 34 3.5 4.3 0.00 0.07 0.07 48 1004.9
20260510004026 60 328 4.3 6.1 0.00 0.07 0.07 47 1004.9
20260510003517 60 17 4.3 6.1 0.00 0.07 0.07 47 1004.7
20260510003013 61 297 6.1 8.7 0.00 0.07 0.07 45 1004.7
20260510002508 61 311 1.7 1.7 0.00 0.07 0.07 44 1004.5
20260510002005 62 330 3.5 5.2 0.00 0.07 0.07 43 1004.3
20260510001503 62 285 1.7 2.6 0.00 0.07 0.07 43 1004.1
20260510001001 62 299 0.9 1.7 0.00 0.07 0.07 42 1003.9
20260510000456 63 278 6.1 7.8 0.00 0.07 0.07 42 1003.7
20260509235953 63 254 1.7 2.6 0.00 0.07 0.07 43 1003.6
20260509235450 63 329 2.6 4.3 0.00 0.07 0.07 42 1003.5
20260509234946 64 211 3.5 5.2 0.00 0.07 0.07 42 1003.5
20260509234443 64 275 2.6 2.6 0.00 0.07 0.07 42 1003.5
20260509233941 64 268 3.5 4.3 0.00 0.07 0.07 42 1003.2
20260509233438 64 206 7.0 8.7 0.00 0.07 0.07 41 1003.2
20260509232934 64 251 0.9 2.6 0.00 0.07 0.07 41 1003.2
20260509232432 65 240 3.5 6.1 0.00 0.07 0.07 42 1002.9
20260509231927 65 270 1.7 4.3 0.00 0.07 0.07 41 1003.0
20260509231424 66 324 7.8 11.3 0.00 0.07 0.07 40 1002.8
20260509230923 65 258 6.1 8.7 0.00 0.07 0.07 40 1002.7
20260509230419 66 135 1.7 2.6 0.00 0.07 0.07 40 1002.8
20260509225915 66 289 6.1 9.6 0.00 0.07 0.07 39 1002.8
20260509225412 66 222 6.1 7.8 0.00 0.07 0.07 39 1002.7
20260509224908 66 258 4.3 5.2 0.00 0.07 0.07 39 1002.8
20260509224403 66 264 2.6 6.1 0.00 0.07 0.07 39 1002.9
20260509223901 66 259 2.6 4.3 0.00 0.07 0.07 39 1002.7
20260509223357 67 320 1.7 4.3 0.00 0.07 0.07 39 1002.5
20260509222854 66 297 3.5 6.1 0.00 0.07 0.07 39 1002.6
20260509222349 66 329 5.2 7.0 0.00 0.07 0.07 38 1002.6
20260509221844 66 253 4.3 7.0 0.00 0.07 0.07 38 1002.5
20260509221342 66 293 0.0 0.0 0.00 0.07 0.07 39 1002.6
20260509220837 66 274 1.7 2.6 0.00 0.07 0.07 41 1002.4
20260509220334 66 251 8.7 12.2 0.00 0.07 0.07 40 1002.3
20260509215829 67 312 2.6 4.3 0.00 0.07 0.07 41 1002.2
20260509215326 67 154 3.5 5.2 0.00 0.07 0.07 40 1002.3
20260509214823 67 238 5.2 7.0 0.00 0.07 0.07 40 1001.9
20260509214320 66 319 7.8 14.8 0.00 0.07 0.07 40 1001.9
20260509213817 67 295 7.0 8.7 0.00 0.07 0.07 40 1001.9
20260509213312 67 240 6.1 7.8 0.00 0.07 0.07 39 1001.8
20260509212810 67 293 7.8 8.7 0.00 0.07 0.07 40 1001.9
20260509212308 68 297 1.7 5.2 0.00 0.07 0.07 39 1001.8
20260509211803 68 263 8.7 11.3 0.00 0.07 0.07 40 1001.8
20260509211259 67 265 6.1 8.7 0.00 0.07 0.07 40 1001.6
20260509210756 67 271 7.8 9.6 0.00 0.07 0.07 41 1001.5
20260509210254 67 341 11.3 15.6 0.00 0.07 0.07 41 1001.5
20260509205753 67 223 7.0 9.6 0.00 0.07 0.07 42 1001.3
20260509205248 67 241 6.1 8.7 0.00 0.07 0.07 44 1001.6
20260509204744 67 269 6.1 7.8 0.00 0.07 0.07 42 1001.5
20260509204241 66 295 8.7 11.3 0.00 0.07 0.07 42 1001.5
20260509203737 68 244 4.3 7.0 0.00 0.07 0.07 43 1001.5
20260509203235 67 289 12.2 18.2 0.00 0.07 0.07 43 1001.5
20260509202730 66 282 7.0 7.8 0.00 0.07 0.07 44 1001.6
20260509202227 67 194 7.0 12.2 0.00 0.07 0.07 44 1001.9
20260509201721 66 265 11.3 17.4 0.00 0.07 0.07 45 1001.6
20260509201218 67 263 11.3 14.8 0.00 0.07 0.07 45 1001.6
20260509200715 66 294 7.8 14.8 0.00 0.07 0.07 47 1001.6
20260509200209 65 255 4.3 6.1 0.00 0.07 0.07 47 1001.6
20260509195705 65 273 7.8 11.3 0.00 0.07 0.07 48 1001.6
20260509195201 65 310 5.2 8.7 0.00 0.07 0.07 48 1001.8
20260509194655 64 296 3.5 7.0 0.00 0.07 0.07 51 1001.8
20260509194152 64 247 11.3 14.8 0.00 0.07 0.07 49 1002.1
20260509193648 64 224 10.4 15.6 0.00 0.07 0.07 50 1002.2
20260509193144 64 291 6.1 8.7 0.00 0.07 0.07 51 1002.5
20260509192641 63 214 7.8 9.6 0.00 0.07 0.07 50 1002.1
20260509192135 63 232 8.7 11.3 0.00 0.07 0.07 52 1002.2
20260509191629 63 235 6.1 7.8 0.00 0.07 0.07 54 1002.3
20260509191127 63 317 6.1 8.7 0.00 0.07 0.07 53 1002.1
20260509190623 63 211 1.7 4.3 0.00 0.07 0.07 52 1002.3
20260509190120 63 283 2.6 4.3 0.00 0.07 0.07 52 1002.1
20260509185618 62 205 6.1 7.8 0.00 0.07 0.07 53 1002.1
20260509185114 62 270 4.3 6.1 0.00 0.07 0.07 54 1002.0
20260509184612 62 216 3.5 5.2 0.00 0.07 0.07 55 1001.9
20260509184109 63 299 5.2 8.7 0.00 0.07 0.07 55 1002.0
20260509183604 63 285 5.2 7.8 0.00 0.07 0.07 54 1001.9
20260509183100 64 299 6.1 8.7 0.00 0.07 0.07 55 1002.0
20260509182556 64 327 10.4 14.8 0.00 0.07 0.07 54 1001.8
20260509182053 64 332 3.5 6.1 0.00 0.07 0.07 56 1001.8
20260509181552 64 221 2.6 5.2 0.00 0.07 0.07 56 1002.0
20260509181048 64 334 5.2 7.0 0.00 0.07 0.07 55 1001.8
20260509180544 64 198 4.3 7.0 0.00 0.07 0.07 54 1002.0
20260509180042 64 209 5.2 8.7 0.00 0.07 0.07 54 1001.9
20260509175537 65 217 6.1 11.3 0.00 0.07 0.07 54 1001.8
20260509175035 66 302 8.7 12.2 0.00 0.07 0.07 53 1001.5
20260509174531 66 275 8.7 15.6 0.00 0.07 0.07 54 1001.6
20260509174026 65 256 5.2 7.0 0.00 0.07 0.07 64 1001.3
20260509173520 63 321 4.3 7.0 0.00 0.07 0.07 69 1001.3
20260509173018 62 280 4.3 7.0 0.05 0.07 0.07 74 1001.2
20260509172515 60 292 6.1 7.8 0.05 0.07 0.07 78 1001.2
20260509172010 59 259 4.3 7.0 0.07 0.06 0.06 82 1001.1
20260509171506 59 256 3.5 4.3 0.38 0.06 0.06 84 1001.2
20260509171003 61 231 4.3 4.3 0.31 0.05 0.05 78 1001.4
20260509170458 67 272 7.0 8.7 0.00 0.00 0.00 55 1001.2
20260509165954 68 277 6.1 7.0 0.00 0.00 0.00 53 1001.0
20260509165453 67 212 4.3 7.8 0.00 0.00 0.00 54 1001.0
20260509164949 67 176 4.3 6.1 0.00 0.00 0.00 55 1001.5
20260509164445 67 283 2.6 4.3 0.00 0.00 0.00 58 1001.2
20260509163941 68 261 7.8 11.3 0.00 0.00 0.00 56 1001.1
20260509163439 68 193 4.3 6.1 0.00 0.00 0.00 57 1001.1
20260509162938 67 206 6.1 7.0 0.00 0.00 0.00 58 1001.1
20260509162437 67 269 5.2 6.1 0.00 0.00 0.00 57 1001.2
20260509161932 66 278 3.5 6.1 0.00 0.00 0.00 59 1001.0
20260509161429 66 255 6.1 7.0 0.00 0.00 0.00 59 1001.3
20260509160924 65 208 4.3 7.8 0.00 0.00 0.00 60 1001.1
20260509160420 66 184 7.8 11.3 0.00 0.00 0.00 60 1001.2
20260509155916 67 286 5.2 12.2 0.00 0.00 0.00 60 1001.4
20260509155413 66 96 0.0 0.0 0.00 0.00 0.00 62 1001.3
20260509154909 65 286 2.6 5.2 0.00 0.00 0.00 62 1001.3
20260509154405 66 98 0.9 1.7 0.00 0.00 0.00 61 1001.1
20260509153902 65 203 0.9 1.7 0.00 0.00 0.00 64 1001.3
20260509153359 64 278 3.5 4.3 0.00 0.00 0.00 63 1001.4
20260509152856 63 212 0.0 0.9 0.00 0.00 0.00 67 1001.8
20260509152352 62 235 0.0 0.0 0.00 0.00 0.00 70 1001.8
20260509151850 62 246 1.7 4.3 0.00 0.00 0.00 71 1001.7
20260509151345 61 129 2.6 2.6 0.00 0.00 0.00 71 1001.8
20260509150844 61 217 2.6 2.6 0.00 0.00 0.00 73 1001.9
20260509150341 61 221 0.0 0.0 0.00 0.00 0.00 74 1001.7
20260509145838 61 251 0.0 0.0 0.00 0.00 0.00 73 1002.0
20260509145333 61 91 2.6 2.6 0.00 0.00 0.00 76 1001.9
20260509144830 60 304 0.0 0.0 0.00 0.00 0.00 78 1002.0
20260509144327 59 132 0.0 0.0 0.00 0.00 0.00 79 1002.1
20260509143824 59 315 0.0 0.0 0.00 0.00 0.00 81 1002.0
20260509143322 59 261 0.9 0.9 0.00 0.00 0.00 80 1002.0
20260509142817 58 242 0.9 0.9 0.00 0.00 0.00 81 1001.9
20260509142314 57 263 0.0 0.0 0.00 0.00 0.00 83 1002.1
20260509141809 58 112 0.9 2.6 0.00 0.00 0.00 83 1002.3
20260509141307 58 276 4.3 7.0 0.00 0.00 0.00 82 1002.1
20260509140803 57 91 0.9 0.9 0.00 0.00 0.00 87 1002.0
20260509140300 57 127 0.0 0.0 0.00 0.00 0.00 88 1002.3
20260509135758 56 214 2.6 2.6 0.00 0.00 0.00 88 1002.5
20260509135255 55 77 1.7 1.7 0.00 0.00 0.00 89 1002.4
20260509134752 54 205 0.0 0.0 0.00 0.00 0.00 93 1002.3
20260509134250 54 158 0.0 0.9 0.00 0.00 0.00 94 1002.7
20260509133747 53 231 0.0 0.9 0.00 0.00 0.00 94 1002.7
20260509133243 54 279 0.0 0.9 0.00 0.00 0.00 94 1002.6
20260509132742 54 47 0.0 0.0 0.00 0.00 0.00 93 1003.5
20260509132240 54 93 1.7 1.7 0.00 0.00 0.00 91 1003.6
20260509131737 54 269 0.0 0.0 0.00 0.00 0.00 89 1004.3
20260509131233 55 322 0.0 0.0 0.00 0.00 0.00 88 1004.3
20260509130729 55 356 1.7 1.7 0.00 0.00 0.00 86 1004.3
20260509130225 56 297 4.3 6.1 0.00 0.00 0.00 84 1004.2
20260509125722 56 295 1.7 1.7 0.00 0.00 0.00 83 1003.5
20260509125219 56 223 0.0 0.0 0.00 0.00 0.00 83 1002.7
20260509124715 56 315 0.9 2.6 0.00 0.00 0.00 83 1002.7
20260509124212 57 194 0.0 0.0 0.00 0.00 0.00 82 1002.9
20260509123710 57 209 0.0 0.0 0.00 0.00 0.00 82 1002.9
20260509123207 57 225 0.9 1.7 0.00 0.00 0.00 82 1003.1
20260509122702 57 212 0.9 2.6 0.00 0.00 0.00 81 1002.8
20260509122200 56 235 1.7 5.2 0.00 0.00 0.00 83 1003.1
20260509121656 56 189 0.9 0.9 0.00 0.00 0.00 84 1002.9
20260509121154 55 218 0.0 0.0 0.00 0.00 0.00 86 1003.0
20260509120652 54 150 0.9 1.7 0.00 0.00 0.00 88 1003.2
20260509120150 54 228 0.0 0.0 0.00 0.00 0.00 89 1003.4
20260509115647 53 205 0.0 0.0 0.00 0.00 0.00 91 1003.3
20260509115144 52 215 0.0 0.0 0.00 0.00 0.00 93 1003.4
20260509114642 52 182 0.0 0.0 0.00 0.00 0.00 93 1003.6
20260509114142 52 352 0.0 0.0 0.00 0.00 0.00 93 1003.7
20260509113639 52 65 0.0 0.0 0.00 0.00 0.00 94 1003.7
20260509113136 51 199 0.9 0.9 0.00 0.00 0.00 95 1003.7
20260509112632 50 214 0.0 0.0 0.00 0.00 0.00 96 1003.9
20260509112130 50 246 0.0 0.0 0.00 0.00 0.00 96 1003.7
20260509111627 50 73 0.9 1.7 0.00 0.00 0.00 96 1003.4
20260509111124 50 199 0.0 0.0 0.00 0.00 0.00 97 1003.6
20260509110621 50 234 0.0 0.0 0.00 0.00 0.00 97 1003.9
20260509110118 50 242 0.0 0.0 0.00 0.00 0.00 98 1003.6
20260509105616 49 261 0.0 0.0 0.00 0.00 0.00 98 1003.9
20260509105113 49 286 0.0 0.9 0.00 0.00 0.00 98 1003.9
20260509104610 49 288 0.0 0.0 0.00 0.00 0.00 99 1003.7
20260509104108 49 314 0.0 0.0 0.00 0.00 0.00 99 1003.6
20260509103605 48 100 0.0 0.0 0.00 0.00 0.00 99 1004.0
20260509103103 48 2 0.0 0.0 0.00 0.00 0.00 99 1003.7
20260509102600 48 273 0.0 0.0 0.00 0.00 0.00 98 1003.9
20260509102056 48 275 0.0 0.0 0.00 0.00 0.00 98 1004.1
20260509101553 47 246 0.0 0.0 0.00 0.00 0.00 98 1004.2
20260509101050 47 257 0.0 0.0 0.00 0.00 0.00 98 1003.7
20260509100547 47 230 0.0 0.0 0.00 0.00 0.00 97 1004.1
20260509100044 47 273 0.0 0.0 0.00 0.00 0.00 97 1004.3
20260509095540 46 298 0.0 0.0 0.00 0.00 0.00 96 1004.2
20260509095038 46 206 0.0 0.0 0.00 0.00 0.00 96 1004.3
20260509094534 46 256 0.0 0.0 0.00 0.00 0.00 95 1004.4
20260509094032 46 283 0.0 0.0 0.00 0.00 0.00 94 1004.5
20260509093530 46 255 0.0 0.0 0.00 0.00 0.00 93 1004.7
20260509093027 46 289 0.0 0.0 0.00 0.00 0.00 92 1004.6
20260509092525 46 277 0.0 0.0 0.00 0.00 0.00 92 1004.8
20260509092023 46 199 0.0 0.0 0.00 0.00 0.00 92 1005.0
20260509091520 45 301 0.0 0.0 0.00 0.00 0.00 91 1004.6
20260509091017 45 287 0.0 0.0 0.00 0.00 0.00 90 1004.7
20260509090514 44 345 0.0 0.0 0.00 0.00 0.00 89 1004.7
20260509090012 44 293 0.0 0.0 0.00 0.00 0.00 88 1004.7
20260509085509 44 267 0.0 0.0 0.00 0.00 0.00 87 1004.8
20260509085005 45 275 0.0 0.0 0.00 0.00 0.00 86 1004.7
20260509084502 45 271 0.0 0.0 0.00 0.00 0.00 85 1004.8
20260509083959 45 277 0.0 0.0 0.00 0.00 0.00 83 1004.7
20260509083456 45 294 0.0 0.0 0.00 0.00 0.00 82 1004.7
20260509082952 46 267 0.0 0.0 0.00 0.00 0.00 81 1005.0
20260509082450 45 264 0.0 0.0 0.00 0.00 0.00 80 1004.8
20260509081947 45 272 0.0 0.0 0.00 0.00 0.00 79 1004.9
20260509081444 45 198 0.0 0.0 0.00 0.00 0.00 77 1004.9
20260509080941 46 273 0.0 0.0 0.00 0.00 0.00 75 1004.8
20260509080440 46 296 0.0 0.0 0.00 0.00 0.00 73 1004.6
20260509075937 46 282 0.0 0.0 0.00 0.00 0.00 71 1004.7
20260509075434 46 255 0.0 0.0 0.00 0.00 0.00 70 1004.6
20260509074932 46 294 0.0 0.0 0.00 0.00 0.00 67 1004.5
20260509074429 46 262 0.0 0.0 0.00 0.00 0.00 64 1004.7
20260509073925 46 252 0.0 0.0 0.00 0.00 0.00 63 1004.8
20260509073422 46 255 0.0 0.0 0.00 0.00 0.00 61 1004.8